Change the Weather History Date:

Saturday, December 3, 2011

  Actual Average Record
Temperature  
Mean Temperature 21 °F -  
Max Temperature 28 °F - - ()
Min Temperature 14 °F - - ()
Degree Days  
Heating Degree Days 44    
Moisture  
Dew Point 13 °F    
Average Humidity 70    
Maximum Humidity 85    
Minimum Humidity 58    
Precipitation  
Precipitation 0.12 in - - ()
Sea Level Pressure  
Sea Level Pressure 30.25 in    
Wind  
Wind Speed 6 mph ()    
Max Wind Speed 12 mph    
Max Gust Speed 20 mph    
T = Trace of Precipitation, MM = Missing Value Source: Averaged Metar Reports

Daily Weather History Graph

Daily Weather History Graph

Search for Another Location

Airport or City:

Trip Planner

Search our weather history database for the weather conditions in past years. The results will help you decide how hot, cold, wet, or windy it might be!

Date:

Astronomy

Dec. 03, 2011 Rise Set
Actual Time 8:26 AM MST 4:37 PM MST
Civil Twilight 7:47 AM MST 5:15 PM MST
Nautical Twilight 7:05 AM MST 5:58 PM MST
Astronomical Twilight 6:25 AM MST 6:38 PM MST
Moon 1:17 PM MST (12/3) 1:21 AM MST (12/3)
Length of Visible Light 9h 28m
Length of Day
8h 10m
Waxing Gibbous, 63% of the Moon is Illuminated
Dec 3
Waxing Gibbous
Dec 10
Full
Dec 17
Last Quarter
Dec 24
New
Dec 31
First Quarter

Hourly Weather History & Observations

Time (MST) Temp. Windchill Dew Point Humidity Pressure Visibility Wind Dir Wind Speed Gust Speed Precip Events Conditions
12:00 AM 14.2 °F 5.3 °F 7.0 °F 73% 30.29 in - SW 5.8 mph - N/A   Unknown
1:00 AM 14.2 °F 5.3 °F 7.2 °F 74% 30.27 in - SW 5.8 mph - N/A   Unknown
2:00 AM 14.9 °F 7.5 °F 7.7 °F 73% 30.27 in - WSW 4.6 mph - N/A   Unknown
3:00 AM 14.9 °F - 7.3 °F 72% 30.25 in - West 2.3 mph - N/A   Unknown
4:00 AM 15.3 °F 2.8 °F 7.9 °F 73% 30.24 in - WSW 10.4 mph 18.4 mph N/A   Unknown
5:00 AM 16.9 °F 6.4 °F 8.2 °F 69% 30.23 in - SW 8.1 mph - N/A   Unknown
6:00 AM 15.8 °F 5.1 °F 7.9 °F 71% 30.26 in - SW 8.1 mph - N/A   Unknown
7:00 AM 18.3 °F 7.3 °F 9.1 °F 67% 30.24 in - SW 9.2 mph - N/A   Unknown
8:00 AM 19.0 °F 6.8 °F 10.2 °F 69% 30.22 in - SW 11.5 mph 19.6 mph N/A   Unknown
9:00 AM 19.6 °F 8.1 °F 10.8 °F 69% 30.23 in - SW 10.4 mph 18.4 mph N/A   Unknown
10:00 AM 20.3 °F 8.3 °F 11.1 °F 68% 30.24 in - SW 11.5 mph 18.4 mph N/A   Unknown
11:00 AM 22.1 °F 11.3 °F 12.0 °F 65% 30.25 in - SW 10.4 mph - N/A   Unknown
12:00 PM 25.0 °F 14.8 °F 12.9 °F 60% 30.21 in - WSW 10.4 mph 18.4 mph N/A   Unknown
1:00 PM 27.1 °F 17.5 °F 14.2 °F 58% 30.19 in - WSW 10.4 mph - N/A   Unknown
2:00 PM 28.2 °F 20.2 °F 15.3 °F 58% 30.19 in - West 8.1 mph - N/A   Unknown
3:00 PM 28.9 °F 21.9 °F 16.5 °F 60% 30.20 in - West 6.9 mph - N/A   Unknown
4:00 PM 27.7 °F 20.4 °F 17.1 °F 64% 30.20 in - WSW 6.9 mph - N/A   Unknown
5:00 PM 27.7 °F 21.3 °F 17.6 °F 66% 30.24 in - WSW 5.8 mph - N/A   Unknown
6:00 PM 27.9 °F 19.8 °F 18.5 °F 68% 30.26 in - WSW 8.1 mph - N/A   Unknown
7:00 PM 25.2 °F 16.5 °F 18.3 °F 75% 30.27 in - SW 8.1 mph - N/A   Unknown
8:00 PM 23.9 °F 18.0 °F 18.5 °F 80% 30.27 in - SW 4.6 mph - N/A   Unknown
10:00 PM 23.2 °F 16.0 °F 19.2 °F 85% 30.30 in - SW 5.8 mph - N/A   Unknown
11:00 PM 23.0 °F - 19.2 °F 85% 30.34 in - WSW 2.3 mph - N/A   Unknown